Budapest Ferihegy, Hungary

4:33 AM CEST on September 23, 2017 (GMT +0200)
Ferihegy

Weather History for LHBP - November, 2013

Change the Weather History Date:

Sunday, November 3, 2013

  Actual Average Record
Temperature  
Mean Temperature 54 °F -  
Max Temperature 64 °F 45 °F 64 °F (2008)
Min Temperature 44 °F 32 °F 19 °F (2006)
Degree Days  
Heating Degree Days 11    
Growing Degree Days 4 (Base 50)    
Moisture  
Dew Point 50 °F    
Average Humidity 90    
Maximum Humidity 100    
Minimum Humidity 68    
Precipitation  
Precipitation 0.00 in - - ()
Sea Level Pressure  
Sea Level Pressure 29.80 in    
Wind  
Wind Speed 7 mph ()    
Max Wind Speed 28 mph    
Max Gust Speed -    
Visibility 4.4 miles    
Events Fog , Rain    
Averages and records for this station are not official NWS values.
T = Trace of Precipitation, MM = Missing Value Source: Averaged Metar Reports

Daily Weather History Graph

Daily Weather History Graph

Search for Another Location

Airport or City:

Trip Planner

Search our weather history database for the weather conditions in past years. The results will help you decide how hot, cold, wet, or windy it might be!

Date:

Astronomy

Nov. 03, 2013 Rise Set
Actual Time 6:29 AM CET 4:22 PM CET
Civil Twilight 5:57 AM CET 4:55 PM CET
Nautical Twilight 5:20 AM CET 5:31 PM CET
Astronomical Twilight 4:45 AM CET 6:07 PM CET
Moon 6:13 AM CET (11/3) 4:22 PM CET (11/3)
Length of Visible Light 10h 57m
Length of Day
9h 53m
Waning Crescent, 0% of the Moon is Illuminated
Nov 3
Waning Crescent
Nov 3
New
Nov 10
First Quarter
Nov 17
Full
Nov 25
Last Quarter

Hourly Weather History & Observations

Time (CET) Temp. Windchill Dew Point Humidity Pressure Visibility Wind Dir Wind Speed Gust Speed Precip Events Conditions
12:00 AM 46.4 °F 45.2 °F 46.4 °F 100% 29.92 in 3.1 mi Variable 3.5 mph - N/A Fog Patches of Fog
12:30 AM 46.4 °F - 46.4 °F 100% 29.89 in 2.5 mi Calm Calm - N/A Fog Patches of Fog
1:00 AM 48.2 °F - 48.2 °F 100% 29.89 in 2.5 mi Calm Calm - N/A Fog Patches of Fog
1:30 AM 46.4 °F - 46.4 °F 100% 29.89 in 2.5 mi Variable 2.3 mph - N/A Fog Patches of Fog
2:00 AM 44.6 °F 42.2 °F 44.6 °F 100% 29.89 in 2.5 mi East 4.6 mph - N/A Fog Patches of Fog
2:30 AM 46.4 °F - 46.4 °F 100% 29.89 in 2.5 mi Calm Calm - N/A Fog Patches of Fog
3:00 AM 46.4 °F 44.3 °F 46.4 °F 100% 29.86 in 3.1 mi East 4.6 mph - N/A Fog Patches of Fog
3:30 AM 44.6 °F 43.1 °F 44.6 °F 100% 29.86 in 3.1 mi Variable 3.5 mph - N/A Fog Patches of Fog
4:00 AM 44.6 °F 42.2 °F 44.6 °F 100% 29.86 in 3.1 mi SE 4.6 mph - N/A Fog Patches of Fog
4:30 AM 44.6 °F - 44.6 °F 100% 29.86 in 2.5 mi Variable 2.3 mph - N/A Fog Patches of Fog
5:00 AM 48.2 °F - 48.2 °F 100% 29.83 in 2.5 mi ENE 5.8 mph - N/A Fog Patches of Fog
5:30 AM 46.4 °F 44.3 °F 46.4 °F 100% 29.83 in 1.6 mi ESE 4.6 mph - N/A Fog Patches of Fog
6:00 AM 46.4 °F 44.3 °F 46.4 °F 100% 29.83 in 2.2 mi East 4.6 mph - N/A Fog Patches of Fog
6:30 AM 48.2 °F - 48.2 °F 100% 29.83 in 2.2 mi ESE 4.6 mph - N/A   Mist
7:00 AM 50.0 °F - 50.0 °F 100% 29.83 in 2.2 mi ESE 5.8 mph - N/A   Mist
7:30 AM 50.0 °F - 50.0 °F 100% 29.83 in 2.5 mi ESE 5.8 mph - N/A   Mist
8:00 AM 51.8 °F - 51.8 °F 100% 29.83 in 3.1 mi East 6.9 mph - N/A   Mist
8:30 AM 53.6 °F - 53.6 °F 100% 29.80 in 3.1 mi ESE 6.9 mph - N/A   Mist
9:00 AM 55.4 °F - 55.4 °F 100% 29.80 in 5.0 mi SE 8.1 mph - N/A   Unknown
9:30 AM 57.2 °F - 57.2 °F 100% 29.80 in 5.0 mi SE 6.9 mph - N/A   Unknown
10:00 AM 60.8 °F - 57.2 °F 88% 29.77 in - South 9.2 mph - N/A   Clear
10:30 AM 62.6 °F - 57.2 °F 82% 29.77 in - South 11.5 mph - N/A   Clear
11:00 AM 62.6 °F - 55.4 °F 77% 29.74 in 6.2 mi South 13.8 mph - N/A   Mostly Cloudy
11:30 AM 64.4 °F - 55.4 °F 73% 29.74 in 6.2 mi South 13.8 mph - N/A   Mostly Cloudy
12:00 PM 64.4 °F - 53.6 °F 68% 29.71 in 6.2 mi South 12.7 mph - N/A   Mostly Cloudy
12:30 PM 64.4 °F - 53.6 °F 68% 29.68 in 6.2 mi South 15.0 mph - N/A   Mostly Cloudy
1:00 PM 64.4 °F - 55.4 °F 73% 29.68 in 6.2 mi South 15.0 mph - N/A Rain Light Rain
1:30 PM 62.6 °F - 57.2 °F 82% 29.68 in 6.2 mi South 10.4 mph - N/A Rain Light Rain
2:00 PM 64.4 °F - 57.2 °F 77% 29.65 in 6.2 mi South 11.5 mph - N/A   Mostly Cloudy
2:30 PM 64.4 °F - 55.4 °F 73% 29.65 in 6.2 mi South 13.8 mph - N/A Rain Light Rain
3:00 PM 64.4 °F - 55.4 °F 73% 29.65 in 6.2 mi South 12.7 mph - N/A   Overcast
3:30 PM 62.6 °F - 55.4 °F 77% 29.65 in 6.2 mi SSW 10.4 mph - N/A   Mostly Cloudy
4:00 PM 55.4 °F - 53.6 °F 94% 29.68 in 4.3 mi West 27.6 mph - N/A Rain Light Rain Showers
4:30 PM 53.6 °F - 53.6 °F 100% 29.71 in 4.3 mi WNW 23.0 mph - N/A Rain Light Rain Showers
5:00 PM 53.6 °F - 53.6 °F 100% 29.71 in 5.0 mi WNW 25.3 mph - N/A Rain Light Rain Showers
5:30 PM 53.6 °F - 50.0 °F 88% 29.71 in 6.2 mi NW 25.3 mph - N/A Rain Light Rain Showers
6:00 PM 53.6 °F - 51.8 °F 94% 29.74 in 6.2 mi WNW 19.6 mph - N/A Rain Light Rain Showers
6:30 PM 51.8 °F - 50.0 °F 94% 29.77 in 6.2 mi West 19.6 mph - N/A Rain Light Rain Showers
7:00 PM 51.8 °F - 48.2 °F 88% 29.77 in 6.2 mi WNW 16.1 mph - N/A Rain Light Rain
7:30 PM 51.8 °F - 48.2 °F 88% 29.83 in 6.2 mi WNW 17.3 mph - N/A Rain Light Rain
8:00 PM 51.8 °F - 48.2 °F 88% 29.83 in 6.2 mi West 16.1 mph - N/A Rain Light Rain
8:30 PM 50.0 °F - 48.2 °F 94% 29.86 in 6.2 mi West 10.4 mph - N/A   Overcast
9:00 PM 50.0 °F - 46.4 °F 87% 29.86 in - West 9.2 mph - N/A   Clear
9:30 PM 50.0 °F - 44.6 °F 82% 29.86 in - West 11.5 mph - N/A   Clear
10:00 PM 50.0 °F - 44.6 °F 82% 29.86 in - West 11.5 mph - N/A   Clear
10:30 PM 50.0 °F - 44.6 °F 82% 29.89 in - WNW 8.1 mph - N/A   Clear
11:00 PM 50.0 °F - 44.6 °F 82% 29.89 in - WNW 9.2 mph - N/A   Clear
11:30 PM 50.0 °F - 42.8 °F 76% 29.89 in - WNW 9.2 mph - N/A   Clear